RH
41 42 43 43 41 40 40 39 43 54 62 64 63 62 60 56 56 58 59 59 60 60 62 64 67 68 68 69 73 76 77 77 78 76 71 68 67 67 66 64 64 62
40 40 42 43 42 40 40 41 41 44 54 62 63 60 58 57 54 53 55 57 58 59 60 61 63 65 66 66 70 73 75 76 76 75 71 69 67 66 64 64 63 61
40 40 39 40 40 39 39 40 41 41 46 55 61 60 57 56 53 49 49 52 55 58 59 60 60 61 63 64 65 68 72 75 76 74 72 72 70 66 64 63 61 59
41 39 38 38 36 37 38 39 40 40 41 45 53 57 57 55 52 49 47 46 49 53 56 58 59 59 60 60 61 63 65 71 74 74 72 73 72 69 66 65 63 60
45 41 39 38 36 36 37 38 38 38 37 39 44 51 53 53 51 49 48 47 46 47 49 53 57 59 59 58 57 57 58 61 66 69 70 71 72 71 70 68 67 66
50 46 42 39 38 37 37 37 36 36 36 36 39 44 49 51 49 47 47 48 47 47 46 47 51 56 58 58 57 55 55 55 57 60 63 66 69 71 71 70 69 69
52 51 49 44 41 39 36 35 35 35 35 35 36 38 42 45 45 43 43 44 45 45 44 43 43 46 49 51 52 51 52 54 54 55 56 59 63 66 68 68 68 68
51 52 52 50 47 42 37 35 35 34 33 34 34 34 35 37 38 38 37 39 40 41 40 39 38 37 38 39 39 40 42 45 49 51 52 54 56 59 62 63 64 65
52 52 52 53 52 48 43 37 34 33 33 32 31 31 31 31 31 33 33 33 35 36 36 36 35 34 34 34 33 33 33 35 39 43 47 50 51 53 56 58 59 60
52 52 52 53 54 52 50 45 39 35 33 32 31 31 29 28 28 30 31 31 30 30 31 31 32 32 32 31 31 30 30 30 32 35 39 43 46 48 50 53 55 55
53 53 53 52 53 54 53 52 49 44 38 33 32 31 30 29 28 28 29 29 28 26 26 27 29 31 32 32 31 29 29 29 29 30 32 36 39 43 45 47 49 50
53 54 53 53 52 53 54 54 54 53 49 41 35 32 31 30 30 29 27 27 26 26 26 26 27 28 30 30 31 31 30 29 29 28 28 30 33 37 40 42 44 45
55 54 53 53 53 52 53 54 54 55 55 52 45 38 32 30 30 30 28 27 26 26 25 25 25 26 26 27 28 29 28 28 28 27 26 26 28 31 35 37 39 40
55 55 55 53 53 53 53 53 54 54 55 56 55 50 44 38 33 30 28 28 27 26 26 25 25 25 25 24 24 25 25 25 25 26 25 24 23 25 29 33 34 35
56 56 56 54 54 54 53 53 54 54 55 56 57 57 55 52 48 42 37 33 30 27 26 25 25 25 23 22 22 22 23 23 22 23 23 23 22 22 24 27 30 32
58 57 56 56 55 55 54 54 54 54 55 56 57 58 59 59 59 57 53 47 40 33 29 27 25 23 21 21 22 22 22 22 22 21 21 22 22 21 21 23 26 30
59 59 58 58 56 55 55 55 55 55 55 56 57 58 59 61 62 63 62 58 51 42 35 30 25 22 21 21 21 22 22 22 22 21 21 21 21 21 21 21 23 27
62 61 60 59 58 58 57 56 56 57 57 57 58 59 60 61 62 63 65 64 61 55 47 38 28 22 22 22 22 22 22 22 23 22 21 21 21 21 22 22 24 26
67 65 63 62 61 60 60 61 61 61 60 59 60 60 61 62 63 64 65 66 67 65 61 53 41 29 24 24 24 23 23 24 25 24 23 22 22 22 22 24 25 26
72 72 70 68 66 65 66 66 66 65 64 64 64 64 63 63 65 67 67 67 68 68 67 65 58 47 37 32 30 28 27 29 32 32 29 26 24 25 25 25 27 28
77 77 77 75 72 70 71 71 70 69 68 69 70 70 68 66 66 68 69 69 69 70 69 70 68 62 54 48 43 40 40 44 46 46 42 36 29 28 28 28 29 29
85 84 83 82 79 78 78 76 74 73 72 72 75 76 76 73 70 69 69 69 70 72 72 71 70 68 65 61 56 53 57 61 60 57 54 48 38 31 30 30 30 30
95 94 92 90 86 86 85 83 82 79 77 77 78 79 81 80 76 72 70 69 70 71 73 73 70 68 68 67 65 66 69 71 67 64 62 56 45 36 33 32 31 31
98 98 98 97 94 92 91 90 89 88 88 88 86 84 83 83 82 79 76 73 71 70 71 71 70 68 67 67 67 70 75 76 73 71 68 61 51 41 35 33 32 31
99 97 95 94 94 94 93 92 92 92 92 93 92 93 91 88 87 86 81 77 74 72 71 71 70 70 69 68 67 69 73 77 79 79 75 64 54 45 38 35 33 32
90 93 93 92 93 94 94 93 93 94 95 92 91 95 98 96 95 93 88 82 78 76 75 73 72 71 71 71 70 70 72 75 79 83 79 66 54 47 42 37 34 34
Wind_Speed
25 24 23 22 21 20 19 19 19 19 19 18 17 15 13 12 11 11 11 10 9 9 8 8 8 7 7 7 7 7 6 6 6 6 6 7 7 8 8 9 9 8
26 26 25 24 22 21 20 20 19 19 19 19 18 16 14 12 12 12 12 11 10 10 9 9 9 9 8 8 8 8 7 7 7 7 7 7 7 8 8 9 9 9
27 27 26 25 24 22 21 20 20 20 20 20 19 17 15 13 12 12 12 11 11 10 10 10 10 10 10 9 9 9 9 8 8 8 8 7 7 7 8 9 9 10
26 26 26 26 25 23 22 21 20 20 20 20 20 18 17 15 13 12 12 11 11 11 11 11 10 11 11 10 10 10 9 9 10 10 9 9 8 7 8 8 9 10
24 25 25 26 26 25 23 23 22 20 20 20 20 19 18 17 15 14 13 12 11 10 11 11 11 11 11 11 11 10 10 10 10 11 11 10 10 9 8 8 8 9
24 24 24 24 25 26 25 24 23 22 21 20 20 20 19 19 18 16 14 13 12 11 11 11 11 11 11 11 11 11 10 10 10 11 11 11 11 11 10 10 9 9
25 24 24 24 24 25 26 26 25 23 22 21 21 21 20 20 19 18 16 15 14 13 12 11 11 11 11 11 11 11 11 11 11 11 11 11 11 11 11 11 10 9
26 25 25 24 24 25 25 26 26 25 24 22 22 21 21 21 21 19 18 17 16 16 15 14 13 12 11 11 11 11 10 11 12 12 12 11 11 12 12 12 11 10
28 27 26 25 25 25 25 25 26 26 25 24 23 22 22 22 21 21 20 19 19 19 18 17 16 14 13 12 12 11 11 11 12 12 13 13 12 12 12 13 13 12
31 29 28 27 26 26 25 25 25 26 27 26 25 24 24 23 22 21 20 20 21 21 20 19 18 16 15 14 13 12 12 12 12 13 13 13 13 13 13 14 14 14
33 32 31 30 28 27 25 25 25 26 27 27 27 27 26 25 24 24 22 22 23 23 22 22 20 19 18 17 16 15 14 14 14 14 14 14 14 14 14 14 14 15
35 34 33 32 30 29 27 26 25 26 26 26 28 29 29 28 27 27 26 25 24 25 24 24 23 22 21 20 19 18 18 17 16 16 16 15 15 15 16 16 15 15
36 35 35 34 32 30 29 28 27 26 26 26 27 28 29 30 30 29 28 27 27 27 27 27 25 24 24 23 22 21 21 20 19 19 18 17 17 16 16 17 17 17
35 35 36 35 33 31 30 29 29 28 27 27 27 27 28 29 30 31 30 30 29 29 29 28 28 27 27 25 24 24 23 22 22 21 20 20 19 18 17 18 18 18
34 35 35 35 35 34 32 31 31 30 29 29 28 27 28 29 30 30 31 31 31 31 31 30 30 29 28 27 25 25 24 23 23 23 22 22 21 20 19 19 18 19
35 34 34 35 35 35 34 33 33 32 31 31 29 28 28 28 29 29 31 31 32 32 32 33 32 31 29 28 26 26 25 25 25 24 24 24 24 23 22 20 19 20
35 34 35 35 35 35 34 33 33 33 33 32 31 30 29 29 29 29 30 30 32 33 33 34 34 32 30 29 28 28 27 27 27 26 26 26 26 25 24 23 22 21
34 34 35 35 34 35 35 34 33 34 33 33 33 33 31 30 30 30 29 29 30 31 32 34 35 34 32 31 30 30 29 29 29 28 28 28 28 28 27 25 24 23
35 35 35 35 34 34 35 35 36 36 34 33 32 33 34 33 32 31 30 29 29 30 31 32 34 34 33 33 32 32 31 31 31 31 31 30 30 30 29 28 27 26
35 36 36 36 36 35 35 36 37 37 37 35 34 34 34 34 34 34 33 32 31 31 30 30 31 33 33 33 33 33 33 32 32 32 32 32 32 31 30 29 28 27
34 35 36 37 37 36 36 37 37 37 37 36 37 37 35 34 33 34 35 34 33 33 33 32 31 31 31 31 32 33 33 32 32 32 32 32 32 31 31 30 29 29
31 31 33 35 36 36 36 38 38 38 36 35 36 37 37 36 35 34 34 33 33 33 35 34 32 31 31 31 31 32 31 31 32 32 32 33 32 31 31 30 30 30
28 28 28 30 32 33 35 37 38 38 37 36 37 37 37 38 37 35 34 33 32 33 34 34 33 31 30 30 30 30 30 31 32 33 33 33 33 32 31 30 30 30
26 26 26 27 28 31 33 35 36 35 33 33 35 36 37 38 38 37 36 34 32 32 31 32 31 30 30 29 29 29 29 30 32 33 33 34 33 32 32 31 30 30
21 23 24 26 27 29 31 32 34 34 32 31 31 31 33 35 37 38 39 37 35 32 31 31 30 29 29 30 29 29 29 29 30 32 33 34 34 33 33 32 31 31
15 19 22 24 26 28 29 29 29 30 31 31 30 29 28 28 29 33 36 37 37 35 33 32 31 31 30 30 29 29 29 29 30 31 33 34 35 34 33 33 33 33
Wind_Direction
226 227 228 229 227 226 226 226 223 220 219 219 221 222 222 222 223 226 227 227 225 223 223 222 221 221 223 224 226 230 232 230 228 224 220 221 223 225 225 225 225 228
226 227 228 230 230 228 227 228 228 226 223 222 223 224 226 226 226 227 228 228 226 225 226 226 226 224 224 225 227 230 234 232 229 227 221 217 219 222 222 221 222 226
227 227 227 229 230 229 228 228 229 230 228 225 223 225 228 228 228 228 228 228 228 228 228 229 230 229 228 228 229 230 232 232 231 232 229 223 219 217 216 219 225 228
227 228 228 229 229 229 229 230 230 231 230 226 223 223 226 227 226 225 226 227 228 229 230 231 232 233 233 232 233 234 234 233 233 236 239 235 229 224 219 220 225 229
229 229 229 230 230 230 230 231 231 231 230 228 226 224 225 225 224 223 224 227 228 229 231 231 231 232 234 235 237 239 239 239 239 241 243 242 239 238 235 232 232 232
232 232 232 232 232 232 231 231 231 231 231 230 228 226 225 224 223 222 224 227 231 233 232 231 230 230 233 237 241 243 243 244 245 246 247 245 244 244 243 243 243 242
234 235 235 234 234 234 233 232 232 232 232 232 231 229 226 224 224 223 225 227 231 234 234 233 231 230 234 238 242 245 246 247 249 249 250 248 245 244 243 244 245 247
237 237 237 237 236 236 235 234 234 233 233 233 233 232 229 226 225 225 225 227 230 233 234 234 232 231 235 239 244 249 251 252 252 251 251 250 245 243 243 243 243 245
239 240 240 239 238 238 238 237 236 235 235 235 234 234 232 230 229 228 226 226 229 232 233 235 236 236 239 244 248 253 256 258 257 255 253 251 248 245 244 244 244 244
240 240 241 240 240 240 240 240 239 239 238 237 236 236 235 233 232 231 230 229 229 230 231 234 237 239 245 250 254 258 261 263 264 263 259 255 252 250 247 246 246 245
241 241 241 241 241 241 242 242 242 242 242 239 238 238 237 236 235 235 234 232 231 231 232 234 237 242 247 252 257 262 264 266 267 267 266 263 259 255 252 250 249 247
243 243 243 243 243 244 244 245 244 244 244 242 240 240 239 239 238 238 237 236 235 236 237 239 241 244 247 251 256 260 263 265 266 266 266 266 265 261 257 254 253 251
246 246 246 245 246 246 246 247 247 247 247 245 243 242 242 242 241 241 240 239 239 240 241 243 244 246 249 251 254 257 259 261 263 264 264 263 263 263 261 259 257 255
248 249 249 248 248 249 248 248 248 248 248 247 246 244 243 244 244 245 244 243 243 243 244 245 246 248 249 250 252 253 255 257 259 261 262 261 260 260 260 260 259 258
250 250 251 251 250 250 250 250 249 249 249 248 248 247 246 246 246 246 246 246 247 247 246 247 248 249 249 249 250 251 253 255 257 258 259 259 259 258 258 258 258 258
252 251 252 253 252 252 252 252 251 251 251 250 250 249 249 248 247 247 246 246 247 248 248 248 249 248 248 248 250 251 253 255 256 256 256 257 258 258 258 257 256 256
254 254 253 254 254 254 254 254 253 253 253 252 251 251 251 250 250 249 247 246 246 247 247 249 249 248 247 248 249 250 252 254 255 255 254 255 257 258 259 258 257 255
256 255 255 256 257 256 256 255 255 254 255 255 254 254 253 252 251 251 249 248 247 247 247 248 249 248 247 247 248 249 250 252 253 254 254 254 256 257 258 258 257 255
253 255 256 257 258 258 259 258 257 256 256 256 257 257 256 255 254 254 252 250 249 248 246 247 248 249 248 247 248 248 248 249 251 252 253 254 255 256 257 257 256 254
244 248 251 253 255 256 258 258 258 258 257 257 258 259 259 258 257 257 256 254 252 251 249 248 248 248 247 247 247 246 246 246 248 250 252 253 254 255 256 255 254 252
236 240 244 247 250 253 255 256 256 257 258 258 258 258 260 261 259 259 258 257 256 255 254 252 250 249 248 246 246 245 244 245 247 248 250 250 251 252 253 253 252 251
235 238 241 244 247 250 253 254 254 255 257 258 259 258 260 262 261 260 259 258 257 257 258 257 254 251 250 248 246 245 245 246 247 247 248 249 248 249 249 250 249 249
238 239 240 243 246 250 253 253 253 254 256 257 258 258 259 261 262 262 260 258 257 257 258 258 257 255 254 252 250 248 248 248 247 246 247 247 246 246 246 246 246 246
245 245 245 245 245 248 251 252 252 253 254 255 257 258 260 261 263 264 263 260 259 258 256 256 256 256 256 255 254 252 251 250 249 248 248 246 245 244 244 244 244 243
255 256 255 255 255 254 254 255 254 253 254 256 257 257 259 260 261 262 263 260 258 258 257 256 255 255 255 255 253 253 253 252 251 251 249 246 244 243 242 242 242 242
264 263 263 262 262 262 259 258 258 256 255 257 258 256 255 255 254 256 259 259 258 258 257 255 253 252 252 252 252 253 253 252 252 252 250 246 243 242 241 241 240 240